THY1362 LIRF-LTFM

Flight info

Callsign THY1362
Flight time 1h 59m
Altitude 37000
Route OKUNO DCT TINIX DCT ATRUP DCT ENFAR DCT VELBA DCT AYTEK
Aircraft A321/M-SDE3FGHIRWY/LB1

Departure

Time 2026-05-03 22:19
Airport Rome–Fiumicino Leonardo da Vinci International Airport (LIRF)

Arrival

Time 2026-05-04 00:18
Airport İstanbul Airport (LTFM)
Time Latitude Longitude Altitude Speed Heading
2026-05-03 22:19 41.51078 12.28175 13537 ft 351 kts 86°
2026-05-03 22:19 41.51235 12.31440 14208 ft 354 kts 86°
2026-05-03 22:19 41.51504 12.34722 14845 ft 357 kts 77°
2026-05-03 22:20 41.52307 12.37864 15481 ft 359 kts 63°
2026-05-03 22:20 41.53659 12.40678 16107 ft 361 kts 49°
2026-05-03 22:20 41.55378 12.43089 16716 ft 364 kts 47°
2026-05-03 22:20 41.56679 12.45994 17269 ft 369 kts 72°
2026-05-03 22:21 41.56989 12.49400 17831 ft 373 kts 90°
2026-05-03 22:21 41.57007 12.52875 18409 ft 376 kts 88°
2026-05-03 22:21 41.57125 12.56372 18973 ft 379 kts 86°
2026-05-03 22:21 41.57319 12.59898 19528 ft 382 kts 85°
2026-05-03 22:22 41.57552 12.63450 20068 ft 385 kts 84°
2026-05-03 22:22 41.57797 12.67025 20596 ft 388 kts 84°
2026-05-03 22:22 41.58040 12.70624 21104 ft 391 kts 85°
2026-05-03 22:22 41.58272 12.74250 21591 ft 394 kts 85°
2026-05-03 22:23 41.58493 12.77915 22073 ft 396 kts 85°
2026-05-03 22:23 41.58703 12.81598 22545 ft 399 kts 85°
2026-05-03 22:23 41.58909 12.85309 22999 ft 402 kts 85°
2026-05-03 22:23 41.59118 12.89046 23445 ft 404 kts 85°
2026-05-03 22:24 41.59327 12.92804 23880 ft 407 kts 85°
2026-05-03 22:24 41.59537 12.96587 24296 ft 410 kts 85°
2026-05-03 22:24 41.59748 13.00406 24688 ft 414 kts 85°
2026-05-03 22:24 41.59963 13.04258 25053 ft 418 kts 85°
2026-05-03 22:25 41.60179 13.08143 25433 ft 420 kts 85°
2026-05-03 22:25 41.60396 13.12050 25853 ft 423 kts 85°
2026-05-03 22:25 41.60607 13.15929 26180 ft 427 kts 85°
2026-05-03 22:25 41.60819 13.19895 26526 ft 429 kts 86°
2026-05-03 22:26 41.61031 13.23872 26981 ft 429 kts 86°
2026-05-03 22:26 41.61243 13.27858 27400 ft 430 kts 86°
2026-05-03 22:26 41.61454 13.31850 27780 ft 432 kts 86°
2026-05-03 22:26 41.61666 13.35880 28141 ft 434 kts 86°
2026-05-03 22:27 41.61876 13.39909 28489 ft 437 kts 86°
2026-05-03 22:27 41.62087 13.43969 28825 ft 439 kts 86°
2026-05-03 22:27 41.62297 13.48047 29162 ft 441 kts 86°
2026-05-03 22:27 41.62507 13.52147 29488 ft 443 kts 86°
2026-05-03 22:28 41.62716 13.56271 29804 ft 446 kts 86°
2026-05-03 22:28 41.62926 13.60409 30115 ft 448 kts 86°
2026-05-03 22:28 41.63137 13.64582 30398 ft 451 kts 86°
2026-05-03 22:28 41.63346 13.68779 30644 ft 454 kts 86°
2026-05-03 22:29 41.63552 13.72991 30947 ft 455 kts 86°
2026-05-03 22:29 41.63759 13.77222 31232 ft 456 kts 86°
2026-05-03 22:29 41.63965 13.81461 31483 ft 458 kts 86°
2026-05-03 22:29 41.64170 13.85708 31771 ft 458 kts 86°
2026-05-03 22:30 41.64375 13.89961 32075 ft 459 kts 86°
2026-05-03 22:30 41.64576 13.94170 32310 ft 461 kts 86°
2026-05-03 22:30 41.64777 13.98462 32482 ft 464 kts 86°
2026-05-03 22:30 41.64977 14.02761 32747 ft 463 kts 86°
2026-05-03 22:31 41.65176 14.07046 33164 ft 459 kts 86°
2026-05-03 22:31 41.65373 14.11292 33556 ft 456 kts 86°
2026-05-03 22:31 41.65567 14.15522 33858 ft 456 kts 86°
2026-05-03 22:31 41.65758 14.19745 34153 ft 455 kts 86°
2026-05-03 22:32 41.65948 14.23963 34477 ft 454 kts 86°
2026-05-03 22:32 41.66138 14.28174 34704 ft 455 kts 86°
2026-05-03 22:32 41.66325 14.32401 34927 ft 456 kts 86°
2026-05-03 22:32 41.66508 14.36631 35193 ft 455 kts 86°
2026-05-03 22:33 41.66689 14.40855 35496 ft 453 kts 86°
2026-05-03 22:33 41.66868 14.45050 35813 ft 451 kts 86°
2026-05-03 22:33 41.67044 14.49233 36088 ft 450 kts 86°
2026-05-03 22:33 41.67218 14.53412 36354 ft 450 kts 86°
2026-05-03 22:34 41.67392 14.57595 36609 ft 449 kts 86°
2026-05-03 22:34 41.67565 14.61770 36832 ft 449 kts 86°
2026-05-03 22:34 41.67740 14.65940 36977 ft 449 kts 86°
2026-05-03 22:35 41.68082 14.74266 37009 ft 448 kts 87°
2026-05-03 22:35 41.68407 14.82518 37009 ft 447 kts 87°
2026-05-03 22:36 41.68740 14.90840 37009 ft 447 kts 87°
2026-05-03 22:36 41.69063 14.99153 37009 ft 447 kts 87°
2026-05-03 22:37 41.69321 15.06053 37016 ft 447 kts 87°
2026-05-03 22:37 41.69625 15.14356 37029 ft 447 kts 87°
2026-05-03 22:38 41.69925 15.22655 37033 ft 446 kts 87°
2026-05-03 22:38 41.70224 15.30946 37032 ft 446 kts 87°
2026-05-03 22:39 41.70523 15.39247 37033 ft 446 kts 87°
2026-05-03 22:39 41.70808 15.47528 37034 ft 446 kts 87°
2026-05-03 22:40 41.71084 15.55828 37032 ft 445 kts 87°
2026-05-03 22:40 41.71355 15.64120 37024 ft 446 kts 87°
2026-05-03 22:41 41.71622 15.72379 37012 ft 447 kts 87°
2026-05-03 22:41 41.71883 15.80729 37017 ft 448 kts 88°
2026-05-03 22:42 41.72134 15.89067 37024 ft 449 kts 88°
2026-05-03 22:42 41.72389 15.97417 37028 ft 449 kts 88°
2026-05-03 22:43 41.72639 16.05776 37033 ft 449 kts 88°
2026-05-03 22:43 41.72876 16.14057 37043 ft 448 kts 88°
2026-05-03 22:44 41.73105 16.22377 37038 ft 447 kts 88°
2026-05-03 22:44 41.73329 16.30684 37037 ft 446 kts 88°
2026-05-03 22:45 41.73544 16.38973 37035 ft 445 kts 88°
2026-05-03 22:45 41.73752 16.47268 37034 ft 445 kts 88°
2026-05-03 22:46 41.73959 16.55553 37033 ft 445 kts 88°
2026-05-03 22:46 41.74161 16.63828 37033 ft 445 kts 88°
2026-05-03 22:47 41.74361 16.72107 37033 ft 445 kts 88°
2026-05-03 22:47 41.74551 16.80329 37033 ft 445 kts 88°
2026-05-03 22:48 41.74733 16.88656 37033 ft 444 kts 88°
2026-05-03 22:48 41.74901 16.96873 37033 ft 444 kts 88°
2026-05-03 22:49 41.75069 17.05151 37033 ft 444 kts 88°
2026-05-03 22:49 41.75238 17.13424 37033 ft 444 kts 88°
2026-05-03 22:50 41.75396 17.21707 37033 ft 444 kts 88°
2026-05-03 22:50 41.75549 17.29989 37033 ft 444 kts 88°
2026-05-03 22:51 41.75696 17.38263 37033 ft 444 kts 89°
2026-05-03 22:51 41.75836 17.46545 37033 ft 444 kts 89°
2026-05-03 22:52 41.75973 17.54775 37033 ft 444 kts 89°
2026-05-03 22:52 41.76109 17.63052 37033 ft 444 kts 89°
2026-05-03 22:53 41.76227 17.71335 37033 ft 444 kts 89°
2026-05-03 22:53 41.76335 17.79610 37033 ft 444 kts 89°
2026-05-03 22:54 41.76448 17.87886 37033 ft 444 kts 89°
2026-05-03 22:54 41.76556 17.96156 37033 ft 444 kts 89°
2026-05-03 22:55 41.76653 18.04429 37033 ft 444 kts 89°
2026-05-03 22:55 41.76747 18.12653 37033 ft 444 kts 89°
2026-05-03 22:56 41.76837 18.20929 37033 ft 444 kts 89°
2026-05-03 22:56 41.76913 18.29214 37033 ft 444 kts 89°
2026-05-03 22:57 41.76992 18.37502 37033 ft 444 kts 89°
2026-05-03 22:57 41.77064 18.45773 37033 ft 444 kts 89°
2026-05-03 22:58 41.77130 18.54046 37033 ft 444 kts 89°
2026-05-03 22:58 41.77185 18.62322 37033 ft 444 kts 89°
2026-05-03 22:59 41.77234 18.70593 37033 ft 444 kts 89°
2026-05-03 22:59 41.77277 18.78864 37033 ft 444 kts 89°
2026-05-03 23:00 41.77319 18.87141 37033 ft 444 kts 89°
2026-05-03 23:00 41.77358 18.95356 37033 ft 444 kts 90°
2026-05-03 23:01 41.77385 19.03625 37033 ft 444 kts 90°
2026-05-03 23:01 41.77406 19.11906 37033 ft 444 kts 90°
2026-05-03 23:02 41.77422 19.20180 37033 ft 444 kts 90°
2026-05-03 23:02 41.77429 19.28450 37033 ft 444 kts 90°
2026-05-03 23:03 41.77435 19.36724 37033 ft 444 kts 90°
2026-05-03 23:03 41.77433 19.45001 37033 ft 444 kts 90°
2026-05-03 23:04 41.77424 19.53268 37033 ft 444 kts 90°
2026-05-03 23:04 41.77411 19.61539 37033 ft 444 kts 90°
2026-05-03 23:05 41.77394 19.69810 37031 ft 444 kts 90°
2026-05-03 23:05 41.77371 19.78084 37026 ft 445 kts 90°
2026-05-03 23:06 41.77334 19.86372 37028 ft 445 kts 90°
2026-05-03 23:06 41.77292 19.94616 37031 ft 445 kts 90°
2026-05-03 23:07 41.77251 20.02910 37028 ft 445 kts 90°
2026-05-03 23:07 41.77206 20.11224 37015 ft 447 kts 90°
2026-05-03 23:08 41.77156 20.19583 36992 ft 449 kts 90°
2026-05-03 23:08 41.77096 20.27916 36997 ft 451 kts 90°
2026-05-03 23:09 41.77024 20.36322 37030 ft 451 kts 91°
2026-05-03 23:09 41.76940 20.44715 37029 ft 450 kts 91°
2026-05-03 23:10 41.76888 20.53105 37009 ft 451 kts 86°
2026-05-03 23:10 41.77632 20.61483 37001 ft 453 kts 82°
2026-05-03 23:11 41.78426 20.69858 37018 ft 454 kts 83°
2026-05-03 23:11 41.79196 20.78255 37016 ft 455 kts 83°
2026-05-03 23:12 41.79960 20.86617 37037 ft 454 kts 83°
2026-05-03 23:12 41.80727 20.95014 37043 ft 452 kts 83°
2026-05-03 23:13 41.81486 21.03369 37039 ft 451 kts 83°
2026-05-03 23:13 41.82236 21.11725 37027 ft 452 kts 83°
2026-05-03 23:14 41.82983 21.20092 37039 ft 451 kts 83°
2026-05-03 23:14 41.83725 21.28445 37030 ft 451 kts 83°
2026-05-03 23:15 41.84456 21.36799 37032 ft 451 kts 83°
2026-05-03 23:15 41.85181 21.45160 37039 ft 451 kts 83°
2026-05-03 23:16 41.85898 21.53457 37036 ft 450 kts 83°
2026-05-03 23:16 41.86612 21.61805 37039 ft 449 kts 83°
2026-05-03 23:17 41.87318 21.70129 37044 ft 448 kts 83°
2026-05-03 23:17 41.88011 21.78429 37035 ft 447 kts 83°
2026-05-03 23:18 41.88699 21.86736 37032 ft 447 kts 83°
2026-05-03 23:18 41.89388 21.95026 37041 ft 447 kts 83°
2026-05-03 23:19 41.90060 22.03268 37034 ft 446 kts 83°
2026-05-03 23:19 41.90731 22.11546 37031 ft 446 kts 83°
2026-05-03 23:20 41.91398 22.19831 37032 ft 446 kts 84°
2026-05-03 23:20 41.92059 22.28123 37032 ft 446 kts 84°
2026-05-03 23:21 41.92718 22.36413 37032 ft 446 kts 84°
2026-05-03 23:21 41.93368 22.44700 37032 ft 446 kts 84°
2026-05-03 23:22 41.94320 22.57160 37030 ft 446 kts 84°
2026-05-03 23:22 41.94949 22.65470 37026 ft 447 kts 84°
2026-05-03 23:23 41.95578 22.73724 37026 ft 447 kts 84°
2026-05-03 23:23 41.96200 22.82046 37030 ft 448 kts 84°
2026-05-03 23:24 41.96611 22.90386 37023 ft 448 kts 92°
2026-05-03 23:24 41.96385 22.97394 37027 ft 448 kts 92°
2026-05-03 23:25 41.96119 23.05716 37034 ft 448 kts 92°
2026-05-03 23:25 41.95853 23.14079 37034 ft 448 kts 92°
2026-05-03 23:26 41.95574 23.22450 37029 ft 448 kts 92°
2026-05-03 23:26 41.95292 23.30810 37029 ft 448 kts 92°
2026-05-03 23:27 41.95005 23.39190 37003 ft 449 kts 92°
2026-05-03 23:27 41.94712 23.47589 37017 ft 450 kts 93°
2026-05-03 23:28 41.94410 23.55940 37030 ft 450 kts 93°
2026-05-03 23:28 41.94102 23.64330 37032 ft 450 kts 93°
2026-05-03 23:29 41.93788 23.72729 37027 ft 450 kts 93°
2026-05-03 23:29 41.93469 23.81144 37023 ft 451 kts 93°
2026-05-03 23:30 41.93141 23.89573 37027 ft 451 kts 93°
2026-05-03 23:30 41.92809 23.97995 37030 ft 452 kts 93°
2026-05-03 23:31 41.92470 24.06364 37028 ft 452 kts 93°
2026-05-03 23:31 41.92418 24.07632 37029 ft 452 kts 93°
2026-05-03 23:32 41.92153 24.13955 37026 ft 452 kts 93°
2026-05-03 23:32 41.91796 24.22396 37031 ft 452 kts 93°
2026-05-03 23:33 41.91447 24.30827 37031 ft 452 kts 93°
2026-05-03 23:33 41.91088 24.39266 37032 ft 452 kts 93°
2026-05-03 23:34 41.90719 24.47690 37042 ft 451 kts 94°
2026-05-03 23:34 41.90343 24.56102 37030 ft 451 kts 94°
2026-05-03 23:35 41.89962 24.64474 37027 ft 451 kts 94°
2026-05-03 23:35 41.89566 24.72884 37040 ft 451 kts 94°
2026-05-03 23:36 41.89172 24.81282 37038 ft 450 kts 94°
2026-05-03 23:36 41.88770 24.89667 37033 ft 450 kts 94°
2026-05-03 23:37 41.88365 24.98049 37034 ft 450 kts 94°
2026-05-03 23:37 41.87961 25.06422 37039 ft 449 kts 94°
2026-05-03 23:38 41.87548 25.14780 37039 ft 448 kts 94°
2026-05-03 23:38 41.87126 25.23111 37042 ft 447 kts 94°
2026-05-03 23:39 41.86697 25.31381 37035 ft 447 kts 94°
2026-05-03 23:39 41.86266 25.39698 37038 ft 446 kts 94°
2026-05-03 23:40 41.85832 25.47998 37036 ft 445 kts 94°
2026-05-03 23:40 41.85384 25.56279 37042 ft 444 kts 94°
2026-05-03 23:41 41.84936 25.64536 37038 ft 444 kts 94°
2026-05-03 23:41 41.84487 25.72809 36711 ft 448 kts 94°
2026-05-03 23:42 41.84258 25.76969 36185 ft 446 kts 94°
2026-05-03 23:42 41.84025 25.81108 35608 ft 445 kts 94°
2026-05-03 23:42 41.83789 25.85233 35100 ft 442 kts 94°
2026-05-03 23:42 41.83556 25.89324 34623 ft 439 kts 94°
2026-05-03 23:43 41.83330 25.93343 34143 ft 436 kts 94°
2026-05-03 23:43 41.83101 25.97379 33664 ft 433 kts 94°
2026-05-03 23:43 41.82872 26.01384 33187 ft 429 kts 94°
2026-05-03 23:43 41.82641 26.05357 32706 ft 426 kts 95°
2026-05-03 23:44 41.82411 26.09302 32221 ft 422 kts 95°
2026-05-03 23:44 41.82183 26.13198 31745 ft 418 kts 95°
2026-05-03 23:44 41.81954 26.17073 31275 ft 414 kts 95°
2026-05-03 23:44 41.81726 26.20908 30817 ft 411 kts 95°
2026-05-03 23:45 41.81497 26.24720 30352 ft 407 kts 95°
2026-05-03 23:45 41.81269 26.28477 29900 ft 403 kts 95°
2026-05-03 23:45 41.81044 26.32207 29463 ft 399 kts 95°
2026-05-03 23:45 41.80699 26.35869 29028 ft 395 kts 102°
2026-05-03 23:46 41.79930 26.39380 28723 ft 391 kts 111°
2026-05-03 23:46 41.78979 26.42811 28441 ft 394 kts 111°
2026-05-03 23:46 41.78031 26.46258 28146 ft 394 kts 111°
2026-05-03 23:46 41.77091 26.49696 27855 ft 392 kts 110°
2026-05-03 23:47 41.76167 26.53079 27569 ft 390 kts 111°
2026-05-03 23:47 41.75189 26.56456 27279 ft 388 kts 116°
2026-05-03 23:47 41.73873 26.59583 26991 ft 385 kts 124°
2026-05-03 23:47 41.72391 26.62565 26699 ft 383 kts 124°
2026-05-03 23:48 41.70919 26.65530 26401 ft 382 kts 124°
2026-05-03 23:48 41.69451 26.68485 26124 ft 381 kts 124°
2026-05-03 23:48 41.67990 26.71428 25837 ft 379 kts 124°
2026-05-03 23:48 41.66535 26.74350 25562 ft 377 kts 126°
2026-05-03 23:49 41.64855 26.77019 25265 ft 374 kts 138°
2026-05-03 23:49 41.62827 26.79157 24991 ft 370 kts 150°
2026-05-03 23:49 41.60540 26.80694 24582 ft 366 kts 161°
2026-05-03 23:49 41.58106 26.81569 24202 ft 361 kts 173°
2026-05-03 23:50 41.55630 26.82084 23819 ft 359 kts 173°
2026-05-03 23:50 41.54003 26.82429 23565 ft 357 kts 173°
2026-05-03 23:50 41.50749 26.83324 23058 ft 356 kts 162°
2026-05-03 23:50 41.48517 26.84749 22677 ft 357 kts 148°
2026-05-03 23:51 41.46600 26.86837 22301 ft 357 kts 135°
2026-05-03 23:51 41.45095 26.89457 21931 ft 356 kts 121°
2026-05-03 23:51 41.44027 26.92428 21559 ft 355 kts 114°
2026-05-03 23:51 41.43048 26.95414 21191 ft 354 kts 114°
2026-05-03 23:52 41.42062 26.98408 20822 ft 352 kts 114°
2026-05-03 23:52 41.41081 27.01383 20456 ft 350 kts 114°
2026-05-03 23:52 41.40100 27.04338 20086 ft 348 kts 116°
2026-05-03 23:52 41.38879 27.07097 19724 ft 344 kts 128°
2026-05-03 23:53 41.37276 27.09444 19371 ft 341 kts 140°
2026-05-03 23:53 41.35372 27.11309 19024 ft 337 kts 151°
2026-05-03 23:53 41.33359 27.12902 18677 ft 336 kts 151°
2026-05-03 23:53 41.31359 27.14492 18337 ft 334 kts 151°
2026-05-03 23:54 41.29366 27.16079 17994 ft 333 kts 151°
2026-05-03 23:54 41.27384 27.17658 17652 ft 331 kts 151°
2026-05-03 23:54 41.25414 27.19223 17323 ft 329 kts 151°
2026-05-03 23:54 41.23475 27.20760 16991 ft 328 kts 151°
2026-05-03 23:55 41.21527 27.22299 16676 ft 322 kts 151°
2026-05-03 23:55 41.19617 27.23805 16329 ft 317 kts 151°
2026-05-03 23:55 41.17733 27.25300 16013 ft 314 kts 151°
2026-05-03 23:55 41.15866 27.26791 15695 ft 313 kts 151°
2026-05-03 23:56 41.14005 27.28276 15377 ft 311 kts 151°
2026-05-03 23:56 41.12154 27.29752 15061 ft 310 kts 151°
2026-05-03 23:56 41.10312 27.31222 14745 ft 308 kts 151°
2026-05-03 23:56 41.08479 27.32685 14434 ft 307 kts 151°
2026-05-03 23:57 41.06651 27.34142 14120 ft 305 kts 151°
2026-05-03 23:57 41.04832 27.35586 13805 ft 304 kts 151°
2026-05-03 23:57 41.03021 27.37020 13501 ft 303 kts 151°
2026-05-03 23:57 41.01229 27.38468 13218 ft 302 kts 147°
2026-05-03 23:58 40.99753 27.40435 12957 ft 304 kts 124°
2026-05-03 23:58 40.98934 27.42997 12705 ft 304 kts 103°
2026-05-03 23:58 40.98520 27.45745 12457 ft 304 kts 101°
2026-05-03 23:58 40.98124 27.48483 12206 ft 303 kts 101°
2026-05-03 23:59 40.97726 27.51254 11953 ft 308 kts 101°
2026-05-03 23:59 40.97323 27.54042 11699 ft 308 kts 101°
2026-05-03 23:59 40.96920 27.56825 11452 ft 307 kts 101°
2026-05-03 23:59 40.96522 27.59572 11197 ft 300 kts 101°
2026-05-04 00:00 40.96129 27.62273 10950 ft 297 kts 101°
2026-05-04 00:00 40.95737 27.64952 10699 ft 296 kts 101°
2026-05-04 00:00 40.95344 27.67617 10449 ft 295 kts 101°
2026-05-04 00:00 40.94952 27.70276 10196 ft 294 kts 101°
2026-05-04 00:01 40.94561 27.72927 9953 ft 293 kts 101°
2026-05-04 00:01 40.94170 27.75565 9825 ft 292 kts 101°
2026-05-04 00:01 40.93777 27.78197 9699 ft 290 kts 102°
2026-05-04 00:01 40.93395 27.80759 9569 ft 278 kts 102°
2026-05-04 00:02 40.93027 27.83230 9444 ft 270 kts 102°
2026-05-04 00:02 40.92666 27.85665 9319 ft 269 kts 102°
2026-05-04 00:02 40.92388 27.88071 9195 ft 268 kts 93°
2026-05-04 00:02 40.92444 27.90532 9070 ft 268 kts 82°
2026-05-04 00:03 40.92717 27.92965 8945 ft 267 kts 81°
2026-05-04 00:03 40.92986 27.95394 8818 ft 267 kts 81°
2026-05-04 00:03 40.93250 27.97822 8696 ft 266 kts 81°
2026-05-04 00:03 40.93514 28.00252 8554 ft 266 kts 81°
2026-05-04 00:04 40.93771 28.02675 8443 ft 266 kts 82°
2026-05-04 00:04 40.94025 28.05090 8318 ft 265 kts 82°
2026-05-04 00:04 40.94282 28.07503 8193 ft 265 kts 81°
2026-05-04 00:04 40.94539 28.09910 8068 ft 264 kts 82°
2026-05-04 00:05 40.94793 28.12313 7826 ft 263 kts 82°
2026-05-04 00:05 40.95045 28.14701 7528 ft 261 kts 82°
2026-05-04 00:05 40.95297 28.17079 7218 ft 260 kts 82°
2026-05-04 00:05 40.95545 28.19441 6913 ft 259 kts 82°
2026-05-04 00:06 40.95794 28.21793 6594 ft 258 kts 82°
2026-05-04 00:06 40.96050 28.24208 6275 ft 269 kts 82°
2026-05-04 00:06 40.96305 28.26625 6105 ft 260 kts 82°
2026-05-04 00:06 40.96550 28.28945 5974 ft 250 kts 82°
2026-05-04 00:07 40.96786 28.31195 5681 ft 246 kts 82°
2026-05-04 00:07 40.97023 28.33456 5315 ft 247 kts 82°
2026-05-04 00:07 40.97255 28.35684 5163 ft 243 kts 82°
2026-05-04 00:07 40.97485 28.37871 5054 ft 243 kts 82°
2026-05-04 00:08 40.97576 28.40097 5014 ft 243 kts 90°
2026-05-04 00:08 40.97576 28.42330 5015 ft 243 kts 90°
2026-05-04 00:08 40.97578 28.44567 5016 ft 243 kts 90°
2026-05-04 00:08 40.97579 28.46788 5015 ft 240 kts 90°
2026-05-04 00:09 40.97581 28.48959 5014 ft 234 kts 90°
2026-05-04 00:09 40.97587 28.51102 5016 ft 233 kts 90°
2026-05-04 00:09 40.97592 28.53249 5016 ft 233 kts 90°
2026-05-04 00:09 40.97597 28.55396 5016 ft 233 kts 90°
2026-05-04 00:10 40.97599 28.57538 5016 ft 233 kts 90°
2026-05-04 00:10 40.97599 28.58958 5015 ft 232 kts 90°
2026-05-04 00:10 40.97599 28.61068 5035 ft 228 kts 90°
2026-05-04 00:10 40.97599 28.63169 5018 ft 228 kts 90°
2026-05-04 00:11 40.97601 28.65269 5018 ft 228 kts 90°
2026-05-04 00:11 40.97605 28.67365 5012 ft 228 kts 88°
2026-05-04 00:11 40.97911 28.69410 5013 ft 227 kts 67°
2026-05-04 00:11 40.98715 28.71181 5015 ft 225 kts 46°
2026-05-04 00:12 40.99910 28.72474 5016 ft 221 kts 26°
2026-05-04 00:12 41.01342 28.73155 5018 ft 217 kts
2026-05-04 00:12 41.02828 28.73232 5012 ft 208 kts 356°
2026-05-04 00:12 41.04265 28.73215 4716 ft 206 kts 356°
2026-05-04 00:13 41.05681 28.73215 4417 ft 197 kts 356°
2026-05-04 00:13 41.06980 28.73179 4230 ft 176 kts 354°
2026-05-04 00:13 41.08137 28.73175 4044 ft 162 kts 357°
2026-05-04 00:13 41.09257 28.73256 3706 ft 162 kts
2026-05-04 00:14 41.10367 28.73383 3432 ft 156 kts
2026-05-04 00:14 41.11407 28.73410 3324 ft 145 kts 351°
2026-05-04 00:14 41.12404 28.73315 3141 ft 142 kts 351°
2026-05-04 00:14 41.13380 28.73218 2865 ft 140 kts 351°
2026-05-04 00:15 41.14350 28.73143 2587 ft 139 kts 351°
2026-05-04 00:15 41.15310 28.73049 2463 ft 139 kts 352°
2026-05-04 00:15 41.16279 28.73006 2399 ft 139 kts 353°
2026-05-04 00:15 41.17246 28.72962 2463 ft 140 kts 353°
2026-05-04 00:16 41.18221 28.72945 2296 ft 141 kts 356°
2026-05-04 00:16 41.19181 28.72958 2017 ft 139 kts 355°
2026-05-04 00:16 41.20148 28.72951 1676 ft 139 kts 352°
2026-05-04 00:16 41.21113 28.72930 1375 ft 137 kts 353°
2026-05-04 00:17 41.22061 28.72846 1112 ft 136 kts 350°
2026-05-04 00:17 41.23006 28.72825 993 ft 136 kts 358°
2026-05-04 00:17 41.23957 28.72834 887 ft 136 kts 354°
2026-05-04 00:17 41.24908 28.72807 689 ft 136 kts 355°
2026-05-04 00:18 41.25854 28.72780 475 ft 135 kts 355°
2026-05-04 00:18 41.26796 28.72762 335 ft 128 kts 358°
2026-05-04 00:18 41.27430 28.72750 334 ft 54 kts 359°
2026-05-04 00:18 41.27776 28.72736 332 ft 36 kts 359°
2026-05-04 00:19 41.27944 28.72763 334 ft 22 kts 17°
2026-05-04 00:19 41.28085 28.72843 331 ft 19 kts 28°
2026-05-04 00:19 41.28129 28.72930 333 ft 13 kts 100°
2026-05-04 00:19 41.28052 28.72962 330 ft 14 kts 179°
2026-05-04 00:20 41.27948 28.72964 333 ft 16 kts 179°
2026-05-04 00:20 41.27826 28.72967 333 ft 19 kts 179°
2026-05-04 00:20 41.27686 28.72971 334 ft 21 kts 179°
2026-05-04 00:20 41.27537 28.72977 332 ft 15 kts 179°
2026-05-04 00:21 41.27433 28.72976 329 ft 13 kts 173°
2026-05-04 00:21 41.27392 28.73080 334 ft 15 kts 91°
2026-05-04 00:21 41.27392 28.73214 334 ft 14 kts 88°
2026-05-04 00:21 41.27395 28.73359 334 ft 17 kts 88°
2026-05-04 00:22 41.27400 28.73526 334 ft 19 kts 87°
2026-05-04 00:22 41.27399 28.73715 334 ft 22 kts 91°
2026-05-04 00:22 41.27403 28.73925 334 ft 21 kts 89°
2026-05-04 00:22 41.27405 28.74091 334 ft 19 kts 89°
2026-05-04 00:23 41.27407 28.74279 333 ft 21 kts 89°
2026-05-04 00:23 41.27410 28.74464 333 ft 17 kts 89°
2026-05-04 00:23 41.27391 28.74582 333 ft 12 kts 140°
2026-05-04 00:23 41.27301 28.74599 334 ft 15 kts 178°
2026-05-04 00:24 41.27190 28.74605 333 ft 17 kts 178°
2026-05-04 00:24 41.27093 28.74605 334 ft 9 kts 174°
2026-05-04 00:24 41.27063 28.74683 334 ft 11 kts 93°
2026-05-04 00:24 41.27064 28.74798 333 ft 14 kts 90°
2026-05-04 00:25 41.27068 28.74937 334 ft 16 kts 88°
2026-05-04 00:25 41.27069 28.75099 334 ft 19 kts 91°
2026-05-04 00:25 41.27059 28.75232 330 ft 12 kts 123°
2026-05-04 00:25 41.26973 28.75261 332 ft 14 kts 178°
2026-05-04 00:26 41.26865 28.75264 333 ft 17 kts 179°
2026-05-04 00:26 41.26738 28.75267 333 ft 20 kts 179°
2026-05-04 00:26 41.26597 28.75269 331 ft 18 kts 180°
2026-05-04 00:26 41.26460 28.75273 332 ft 21 kts 179°
2026-05-04 00:27 41.26314 28.75277 332 ft 18 kts 179°
2026-05-04 00:27 41.26247 28.75216 334 ft 14 kts 260°
2026-05-04 00:27 41.26244 28.75087 334 ft 10 kts 270°
2026-05-04 00:27 41.26287 28.75020 334 ft 12 kts
2026-05-04 00:28 41.26323 28.75021 331 ft 2 kts 356°
2026-05-04 00:28 41.26347 28.75009 332 ft 5 kts 331°
2026-05-04 00:28 41.26366 28.74961 334 ft 7 kts 278°
2026-05-04 00:28 41.26374 28.74921 333 ft 6 kts 286°
2026-05-04 00:29 41.26378 28.74901 334 ft 0 kts 286°